Simultaneous Nadir Overpasses (SNOs) Predictions

Prediction of SNOs between NOAA-19 and TERRA Satellite Orbit:

Table of predicted SNOs for the next 14.0 days since TLE Epoch: 4/25/2020
Index Date (NOAA-19) Time (NOAA-19) Lat,Lon (NOAA-19) SZA (NOAA-19 ) Date (TERRA) Time (TERRA) Lat,Lon (TERRA) SZA (TERRA ) Distance(km) Time Diff (sec)
1 04/26/2020 18:56:11 -79.39, 103.22 113.22 04/26/2020 18:57:19 -79.39, 103.23 113.20 0.52 68
2 04/26/2020 19:47:15 79.38, -89.42 66.77 04/26/2020 19:46:46 79.35, -89.38 66.74 3.17 29
3 04/29/2020 01:20:30 -79.39, 7.25 113.91 04/29/2020 01:20:28 -79.37, 7.36 113.92 2.73 2
4 05/01/2020 06:53:53 79.37, 104.16 65.43 05/01/2020 06:54:09 79.39, 104.08 65.45 3.16 16
5 05/01/2020 07:44:48 -79.36, -88.44 114.58 05/01/2020 07:43:37 -79.36, -88.52 114.62 1.70 71
6 05/03/2020 12:27:08 -79.40,-159.36 115.22 05/03/2020 12:27:52 -79.38,-159.44 115.23 2.99 44
7 05/03/2020 13:18:12 79.36, 8.26 64.78 05/03/2020 13:17:18 79.37, 8.17 64.76 2.49 54
8 05/05/2020 18:00:32 79.40, -62.61 64.17 05/05/2020 18:01:33 79.39, -62.78 64.17 3.51 61
9 05/05/2020 18:51:26 -79.37, 104.94 115.85 05/05/2020 18:51:00 -79.40, 104.90 115.84 3.19 26




NCC Satellite Simultaneous Nadir Overpasses (SNOs) Prediction Service
